Le nostre stazioni meteo in Italia

Pubblicità
Il mio iltempo24.it
Brindisi, Italia (16320): Temperatura & dewpoint: 12.03.2019 20:00:00 - 18.03.2019 20:00:00 (CET)Brindisi, Italia (16320): velocità del vento: 12.03.2019 20:00:00 - 18.03.2019 20:00:00 (CET)Brindisi, Italia (16320): direzione del vento: 12.03.2019 20:00:00 - 18.03.2019 20:00:00 (CET)Brindisi, Italia (16320): reduced air pressure: 12.03.2019 20:00:00 - 18.03.2019 20:00:00 (CET)Brindisi, Italia (16320): visibility: 12.03.2019 20:00:00 - 18.03.2019 20:00:00 (CET)Brindisi, Italia (16320): precipitazioni: 12.03.2019 20:00:00 - 18.03.2019 20:00:00 (CET)
Data & Tempo tt [°C] td [°C] ff [km/h] ff [kn] dd ppp [hPa] vv [km] rr [mm]
18.03.2019 20:00:00 14,0 11,0 13 7 S - 10 -
18.03.2019 19:00:00 14,4 10,3 15 8 S 1015,2 10 -
18.03.2019 18:00:00 15,0 11,0 21 11 S - 10 -
18.03.2019 17:00:00 16,0 10,0 29 16 S - 10 -
18.03.2019 16:00:00 17,2 10,6 29 16 SSO 1013,7 10 0,0
18.03.2019 15:00:00 18,0 10,0 26 14 S - 10 -
18.03.2019 14:00:00 18,0 11,0 26 14 S - 10 -
18.03.2019 13:00:00 17,5 10,7 26 14 S 1014,6 10 -
18.03.2019 12:00:00 17,0 10,0 29 16 SSO - 10 -
18.03.2019 11:00:00 17,0 11,0 26 14 S - 10 -
18.03.2019 10:00:00 16,1 11,0 22 12 S 1015,0 10 0,0
18.03.2019 09:00:00 15,0 11,0 24 13 SSE - 10 -
18.03.2019 08:00:00 14,0 10,0 18 10 SSE - 10 -
18.03.2019 07:00:00 11,9 9,6 18 10 SSE 1014,6 10 -
18.03.2019 06:00:00 11,0 9,0 18 10 SSE - 10 -
18.03.2019 05:00:00 - - - - - - - -
18.03.2019 04:00:00 12,0 9,6 21 11 SSE 1014,2 10 0,0
18.03.2019 03:00:00 12,0 9,0 15 8 SSE - 10 -
18.03.2019 02:00:00 12,0 9,0 15 8 SSE - 10 -
18.03.2019 01:00:00 13,0 9,3 15 8 SSE 1015,2 10 -
18.03.2019 00:00:00 13,0 9,0 24 13 S - 10 -
17.03.2019 23:00:00 13,0 9,0 18 10 S - 10 -
17.03.2019 22:00:00 12,8 9,3 16 9 S 1016,1 10 0,0
17.03.2019 21:00:00 13,0 9,0 16 9 S - 10 -
17.03.2019 20:00:00 13,0 10,0 11 6 SSE - 10 -
17.03.2019 19:00:00 13,8 10,2 21 11 S 1016,2 10 -
17.03.2019 18:00:00 16,0 11,0 18 10 S - 10 -
17.03.2019 17:00:00 17,0 10,0 18 10 S - 10 -
17.03.2019 16:00:00 18,0 11,2 18 10 S 1016,2 10 0,0
17.03.2019 15:00:00 18,0 12,0 28 15 SSO - 10 -
17.03.2019 14:00:00 19,0 12,0 24 13 S - 10 -
17.03.2019 13:00:00 18,3 11,7 22 12 S 1017,4 10 -
17.03.2019 12:00:00 18,0 11,0 22 12 S - 10 -
17.03.2019 11:00:00 17,0 11,0 21 11 S - 10 -
17.03.2019 10:00:00 15,9 11,2 16 9 S 1018,7 10 0,0
17.03.2019 09:00:00 15,0 11,0 16 9 S - 10 -
17.03.2019 08:00:00 13,0 11,0 11 6 SSE - 10 -
17.03.2019 07:00:00 11,3 10,6 8 4 SSE 1018,6 10 -
17.03.2019 06:00:00 11,0 10,0 8 4 SSE - 8 -
17.03.2019 05:00:00 11,0 10,0 4 2 SSE - 8 -
17.03.2019 04:00:00 10,9 10,2 8 4 SSE 1017,7 7 0,0
17.03.2019 03:00:00 10,0 9,0 5 3 SE - 8 -
17.03.2019 02:00:00 10,0 9,0 9 5 SSE - 10 -
17.03.2019 01:00:00 10,1 8,8 5 3 SSE 1018,6 10 -
17.03.2019 00:00:00 11,0 9,0 9 5 S - 10 -
16.03.2019 23:00:00 11,0 8,0 9 5 SSE - 10 -
16.03.2019 22:00:00 11,5 7,6 11 6 S 1018,6 10 0,0
16.03.2019 21:00:00 13,0 8,0 9 5 S - 10 -
16.03.2019 20:00:00 14,0 8,0 13 7 S - 10 -
16.03.2019 19:00:00 14,9 8,2 15 8 SSO 1017,9 10 -
16.03.2019 18:00:00 16,0 6,0 16 9 SSO - 10 -
16.03.2019 17:00:00 18,0 3,0 11 6 SE - 10 -
16.03.2019 16:00:00 17,1 10,6 16 9 SE 1016,9 10 0,0
16.03.2019 15:00:00 20,0 6,0 15 8 SSO - 10 -
16.03.2019 14:00:00 20,0 5,0 16 9 SSO - 10 -
16.03.2019 13:00:00 19,8 6,7 15 8 SSO 1017,1 10 -
16.03.2019 12:00:00 19,0 6,0 18 10 SSO - 10 -
16.03.2019 11:00:00 18,0 7,0 13 7 SSO - 10 -
16.03.2019 10:00:00 15,9 9,7 8 4 SE 1018,1 10 0,0
16.03.2019 09:00:00 13,0 8,0 4 2 - - 10 -
16.03.2019 08:00:00 8,0 7,0 5 3 SO - 10 -
16.03.2019 07:00:00 8,2 7,2 5 3 S 1016,6 10 -
16.03.2019 06:00:00 7,0 5,0 5 3 SSE - 10 -
16.03.2019 05:00:00 7,0 5,0 8 4 SSE - 10 -
16.03.2019 04:00:00 8,4 6,3 8 4 S 1016,2 10 0,0
16.03.2019 03:00:00 10,0 5,0 13 7 SSO - 10 -
16.03.2019 02:00:00 7,0 3,0 4 2 - - 10 -
16.03.2019 01:00:00 7,3 3,7 5 3 SO 1016,3 - -
16.03.2019 00:00:00 8,0 4,0 11 6 SO - 10 -
15.03.2019 23:00:00 9,0 4,0 13 7 SO - 10 -
15.03.2019 22:00:00 8,6 4,6 13 7 SO 1016,4 10 0,0
15.03.2019 21:00:00 9,0 7,0 13 7 SO - 10 -
15.03.2019 20:00:00 10,0 7,0 8 4 NO - 10 -
15.03.2019 19:00:00 10,5 7,9 9 5 NO 1014,9 10 -
15.03.2019 18:00:00 12,0 8,0 9 5 ONO - 10 -
15.03.2019 17:00:00 14,0 8,0 15 8 ONO - 10 -
15.03.2019 16:00:00 14,2 8,0 16 9 NO 1013,5 10 0,0
15.03.2019 15:00:00 14,0 7,0 16 9 NO - 10 -
15.03.2019 14:00:00 14,0 7,0 18 10 NO - 10 -
15.03.2019 13:00:00 14,0 7,2 16 9 NO 1013,2 10 -
15.03.2019 12:00:00 13,0 7,0 18 10 NO - 10 -
15.03.2019 11:00:00 13,0 5,0 21 11 NO - 10 -
15.03.2019 10:00:00 13,0 4,4 11 6 NO 1012,5 10 0,0
15.03.2019 09:00:00 12,0 3,0 4 2 - - 10 -
15.03.2019 08:00:00 10,0 4,0 4 2 - - 10 -
15.03.2019 07:00:00 6,4 3,3 11 6 OSO 1010,9 10 -
15.03.2019 06:00:00 6,0 4,0 13 7 SO - 10 -
15.03.2019 05:00:00 7,0 4,0 11 6 OSO - 10 -
15.03.2019 04:00:00 8,1 3,8 13 7 O 1010,4 10 0,0
15.03.2019 03:00:00 8,0 5,0 13 7 O - 10 -
15.03.2019 02:00:00 7,0 5,0 13 7 OSO - 10 -
15.03.2019 01:00:00 8,3 5,2 15 8 OSO 1011,6 10 -
15.03.2019 00:00:00 10,0 5,0 11 6 NNO - 10 -
14.03.2019 23:00:00 11,0 5,0 22 12 NNO - 10 -
14.03.2019 22:00:00 10,7 5,4 22 12 N 1011,2 10 0,0
14.03.2019 21:00:00 10,0 6,0 24 13 N - 10 -
14.03.2019 20:00:00 10,0 6,0 28 15 N - 10 -
14.03.2019 19:00:00 10,2 7,4 26 14 N 1010,4 10 -
14.03.2019 18:00:00 10,0 8,0 21 11 NNO - 10 -
14.03.2019 17:00:00 10,0 7,0 18 10 NNO - 10 -
14.03.2019 16:00:00 10,7 7,4 11 6 N 1008,3 10 0,0
14.03.2019 15:00:00 10,0 8,0 5 3 ESE - 10 -
14.03.2019 14:00:00 10,0 8,0 9 5 SSO - 10 -
14.03.2019 13:00:00 9,1 7,3 15 8 SO 1008,3 10 -
14.03.2019 12:00:00 10,0 7,0 21 11 SO - 8 -
14.03.2019 11:00:00 10,0 8,0 13 7 SO - 8 -
14.03.2019 10:00:00 9,7 7,7 9 5 OSO 1009,8 8 0,0
14.03.2019 09:00:00 10,0 7,0 11 6 SO - 10 -
14.03.2019 08:00:00 10,0 7,0 9 5 SSE - 10 -
14.03.2019 07:00:00 9,2 6,5 4 2 - 1009,8 10 -
14.03.2019 06:00:00 9,0 6,0 8 4 SSO - 10 -
14.03.2019 05:00:00 9,0 6,0 11 6 ONO - 10 -
14.03.2019 04:00:00 9,9 4,6 15 8 SO 1011,0 10 0,0
14.03.2019 03:00:00 9,0 5,0 13 7 SSO - 10 -
14.03.2019 02:00:00 7,0 4,0 9 5 SE - 10 -
14.03.2019 01:00:00 7,2 3,0 8 4 SSE 1013,1 10 -
14.03.2019 00:00:00 7,0 2,0 9 5 SSE - 10 -
13.03.2019 23:00:00 8,0 2,0 9 5 SSE - 10 -
13.03.2019 22:00:00 8,6 1,1 11 6 S 1014,1 10 0,0
13.03.2019 21:00:00 9,0 2,0 9 5 S - 10 -
13.03.2019 20:00:00 9,0 1,0 8 4 S - 10 -
13.03.2019 19:00:00 9,4 1,5 2 1 - 1014,1 10 -
13.03.2019 18:00:00 11,0 0,0 4 2 - - 10 -
13.03.2019 17:00:00 12,0 1,0 11 6 NNO - 10 -
13.03.2019 16:00:00 11,5 -0,2 13 7 N 1014,8 10 0,0
13.03.2019 15:00:00 12,0 0,0 13 7 NNO - 10 -
13.03.2019 14:00:00 12,0 0,0 18 10 NNO - 10 -
13.03.2019 13:00:00 12,4 0,4 21 11 NNO 1015,8 10 -
13.03.2019 12:00:00 12,0 -1,0 21 11 NNO - 10 -
13.03.2019 11:00:00 12,0 -1,0 21 11 NNO - 10 -
13.03.2019 10:00:00 11,8 -0,1 21 11 N 1016,8 10 0,0
13.03.2019 09:00:00 11,0 0,0 22 12 NNO - 10 -
13.03.2019 08:00:00 11,0 0,0 18 10 N - 10 -
13.03.2019 07:00:00 10,1 -1,3 26 14 NNO 1016,1 10 -
13.03.2019 06:00:00 10,0 -1,0 21 11 NNO - 10 -
13.03.2019 05:00:00 - - - - - - - -
13.03.2019 04:00:00 10,2 -0,7 24 13 NNO 1015,6 - 0,0
13.03.2019 03:00:00 - - - - - - - -
13.03.2019 02:00:00 11,0 -1,0 29 16 N - 10 -
13.03.2019 01:00:00 10,8 -2,0 34 18 N 1015,6 10 -
13.03.2019 00:00:00 11,0 -1,0 35 19 N - 10 -
12.03.2019 23:00:00 11,0 -1,0 44 24 N - 10 -
12.03.2019 22:00:00 11,0 -1,1 42 23 N 1014,5 10 0,0
12.03.2019 21:00:00 11,0 0,0 44 24 N - 10 -
12.03.2019 20:00:00 11,0 -1,0 44 24 N - 10 -

tt = Temperatura
td = dewpoint
ff = velocità del vento
dd = direzione del vento
ppp = reduced air pressure
vv = visibility
rr = precipitazioni

Stazioni seguenti

WeatherPro
AMSI
MeteoEarth